Weather History for Cape Girardeau, MO

Change the Weather History Date:

Monday, August 4, 2014

  Actual Average Record
Temperature  
Mean Temperature 74 °F 78 °F  
Max Temperature 89 °F 89 °F 105 °F (1964)
Min Temperature 59 °F 67 °F 52 °F (1974)
Degree Days  
Heating Degree Days 0 0  
Month to date heating degree days 0 0  
Since 1 June heating degree days 0 4  
Since 1 July heating degree days 0 0  
Cooling Degree Days 9 13  
Month to date cooling degree days 37 52  
Year to date cooling degree days 882 938  
Since 1 June cooling degree days 671 786  
Growing Degree Days 24 (Base 50)    
Moisture  
Dew Point 61 °F    
Average Humidity 68    
Maximum Humidity 100    
Minimum Humidity 36    
Precipitation  
Precipitation 0.00 in 0.09 in 3.50 in (2009)
Month to date precipitation 0.00 0.39  
Year to date precipitation 28.81 28.42  
Sea Level Pressure  
Sea Level Pressure 30.08 in    
Wind  
Wind Speed 3 mph (East)    
Max Wind Speed 8 mph    
Max Gust Speed 11 mph    
Visibility 4 miles    
Events Fog    
T = Trace of Precipitation, MM = Missing Value Source: NWS Daily Summary

Daily Weather History Graph

Daily Weather History Graph

Search for Another Location

Airport:

Trip Planner

Search our weather history database for the weather conditions in past years. The results will help you decide how hot, cold, wet, or windy it might be!

Date:

Astronomy

Aug. 04, 2014 Rise Set
Actual Time 6:05 AM CDT 8:02 PM CDT
Civil Twilight 5:36 AM CDT 8:31 PM CDT
Nautical Twilight 5:02 AM CDT 9:05 PM CDT
Astronomical Twilight 4:24 AM CDT 9:42 PM CDT
Moon 2:15 PM CDT (8/4) 12:11 AM CDT (8/4)
Length of Visible Light 14h 54m
Length of Day
13h 57m
First Quarter, 57% of the Moon is Illuminated
Aug 4
First Quarter
Aug 10
Full
Aug 17
Last Quarter
Aug 25
New
Sep 2
First Quarter

Hourly Weather History & Observations

Time (CDT) Temp. Heat Index Dew Point Humidity Pressure Visibility Wind Dir Wind Speed Gust Speed Precip Events Conditions
12:53 AM 62.1 °F - 60.1 °F 93% 30.09 in 5.0 mi Calm Calm - N/A   Clear
1:39 AM 62.1 °F - 60.1 °F 93% 30.10 in 1.5 mi Calm Calm - N/A   Partly Cloudy
1:41 AM 62.1 °F - 60.1 °F 93% 30.09 in 0.8 mi Calm Calm - N/A   Mist
1:51 AM 60.8 °F - 60.8 °F 100% 30.09 in 0.2 mi Calm Calm - N/A Fog Fog
1:53 AM 62.1 °F - 61.0 °F 96% 30.09 in 0.2 mi Calm Calm - N/A Fog Fog
2:09 AM 62.1 °F - 60.1 °F 93% 30.09 in 0.2 mi Calm Calm - N/A Fog Fog
2:24 AM 62.1 °F - 60.1 °F 93% 30.09 in 0.5 mi Calm Calm - N/A Fog Fog
2:32 AM 61.0 °F - 60.1 °F 97% 30.08 in 1.2 mi Calm Calm - N/A   Partly Cloudy
2:43 AM 61.0 °F - 60.1 °F 97% 30.08 in 0.8 mi Calm Calm - N/A   Mist
2:53 AM 62.1 °F - 61.0 °F 96% 30.07 in 0.5 mi Calm Calm - N/A Fog Fog
3:16 AM 60.1 °F - 60.1 °F 100% 30.08 in 0.2 mi Calm Calm - N/A Fog Fog
3:46 AM 60.8 °F - 59.0 °F 94% 30.08 in 0.5 mi Calm Calm - N/A Fog Fog
4:02 AM 61.0 °F - 60.1 °F 97% 30.08 in 0.5 mi Calm Calm - N/A Fog Fog
4:04 AM 61.0 °F - 60.1 °F 97% 30.08 in 0.2 mi Calm Calm - N/A Fog Fog
4:40 AM 60.1 °F - 59.0 °F 96% 30.08 in 0.2 mi Calm Calm - N/A Fog Fog
4:48 AM 60.8 °F - 57.2 °F 88% 30.08 in 0.8 mi Calm Calm - N/A   Clear
4:53 AM 60.1 °F - 59.0 °F 96% 30.08 in 0.8 mi Calm Calm - N/A   Clear
5:00 AM 60.8 °F - 59.0 °F 94% 30.08 in 1.5 mi Calm Calm - N/A   Clear
5:08 AM 60.1 °F - 59.0 °F 96% 30.08 in 2.5 mi Calm Calm - N/A   Clear
5:27 AM 61.0 °F - 60.1 °F 97% 30.08 in 0.8 mi Calm Calm - N/A   Clear
5:53 AM 60.1 °F - 59.0 °F 96% 30.08 in 0.8 mi Calm Calm - N/A   Clear
6:04 AM 60.1 °F - 57.9 °F 93% 30.09 in 0.2 mi West 3.5 mph - N/A Fog Fog
6:53 AM 61.0 °F - 60.1 °F 97% 30.10 in 0.2 mi Calm Calm - N/A Fog Fog
6:59 AM 62.1 °F - 61.0 °F 96% 30.11 in 1.0 mi Calm Calm - N/A   Mist
7:04 AM 62.1 °F - 61.0 °F 96% 30.11 in 2.0 mi Calm Calm - N/A   Partly Cloudy
7:19 AM 63.0 °F - 61.0 °F 93% 30.11 in 3.0 mi Calm Calm - N/A   Clear
7:53 AM 66.0 °F - 64.0 °F 93% 30.12 in 5.0 mi Calm Calm - N/A   Clear
8:53 AM 75.0 °F - 66.0 °F 73% 30.12 in 8.0 mi ENE 3.5 mph - N/A   Clear
9:53 AM 78.1 °F - 66.9 °F 68% 30.11 in 10.0 mi Calm Calm - N/A   Clear
10:53 AM 82.9 °F 84.6 °F 64.9 °F 54% 30.10 in 10.0 mi ESE 3.5 mph - N/A   Clear
11:53 AM 84.9 °F 86.1 °F 64.0 °F 49% 30.10 in 10.0 mi Calm Calm - N/A   Clear
12:53 PM 87.1 °F 88.3 °F 64.0 °F 46% 30.09 in 10.0 mi East 5.8 mph - N/A   Clear
1:53 PM 88.0 °F 86.9 °F 57.9 °F 36% 30.07 in 10.0 mi ENE 8.1 mph - N/A   Partly Cloudy
2:53 PM 87.1 °F 87.0 °F 61.0 °F 41% 30.05 in 10.0 mi ENE 6.9 mph - N/A   Clear
3:53 PM 87.1 °F 86.7 °F 60.1 °F 40% 30.04 in 10.0 mi East 4.6 mph - N/A   Clear
4:53 PM 87.1 °F 87.0 °F 61.0 °F 41% 30.03 in 10.0 mi ESE 5.8 mph - N/A   Clear
5:53 PM 86.0 °F 86.1 °F 61.0 °F 43% 30.02 in 10.0 mi East 6.9 mph - N/A   Clear
6:53 PM 84.9 °F 85.9 °F 63.0 °F 48% 30.02 in 10.0 mi ENE 5.8 mph - N/A   Clear
7:53 PM 77.0 °F - 66.0 °F 69% 30.03 in 10.0 mi SE 3.5 mph - N/A   Clear
8:53 PM 71.1 °F - 66.0 °F 84% 30.03 in 10.0 mi WSW 3.5 mph - N/A   Clear
9:53 PM 69.1 °F - 64.9 °F 87% 30.06 in 10.0 mi Calm Calm - N/A   Clear
10:53 PM 68.0 °F - 64.9 °F 90% 30.04 in 10.0 mi Calm Calm - N/A   Clear
11:53 PM 69.1 °F - 66.0 °F 90% 30.04 in 10.0 mi East 3.5 mph - N/A   Clear